sat.trackr.live / text

‹ back to catalog

QIANFAN-237

NORAD 69866 · 2026-155U

PAYLOAD ACTIVE UNKNOWN

§ Identity

Operator
Country
PRC
Launch date
2026-07-05
Launch site
WSC
Launch vehicle
Mass (kg)
RCS (m²)

External: N2YO · Heavens-Above · Gunter

§ Orbital elements

Epoch: 2026-09-19T19:44:28.788288Z

Period
106.47 min
Inclination
89.0086°
Eccentricity
0.0034788
Mean motion
13.52496755 rev/d
Perigee alt
1,037.2 km
Apogee alt
1,089.0 km
Semi-major
7,441.2 km
B*
-2.9100e+0
RAAN
53.7411°
Arg perigee
16.7510°
Mean anomaly
343.4782°
Rev number
1,065

§ Raw data

QIANFAN-2371 69866U 26155U   26262.82255542 -.01804373  00000+0 -29100+1 0  99942 69866  89.0086  53.7411 0034788  16.7510 343.4782 13.52496755 10659

JSON: /api/v1/satellites/69866 · /tle

For live sub-satellite position, see the globe view (requires WebGL).

§ Visibility from observer

Set your observer location to see the next 7 days of passes ≥ 10°. The values pass through the URL so the page stays shareable.

No JS? Fill the form by hand. The geolocation button needs JavaScript.